Norfolk, VA

4:52 PM EST on February 07, 2016 (GMT -0500)
Norfolk International

Weather History for KORF - October, 2012

Change the Weather History Date:

Saturday, October 6, 2012

  Actual Average Record
Temperature  
Mean Temperature 73 °F 65 °F  
Max Temperature 84 °F 73 °F 94 °F (1954)
Min Temperature 61 °F 58 °F 38 °F (1965)
Degree Days  
Heating Degree Days 0 2  
Month to date heating degree days 0 12  
Since 1 July heating degree days 4 23  
Cooling Degree Days 8 3  
Month to date cooling degree days 55 20  
Year to date cooling degree days 1837 1585  
Growing Degree Days 22 (Base 50)    
Moisture  
Dew Point 59 °F    
Average Humidity 68    
Maximum Humidity 93    
Minimum Humidity 43    
Precipitation  
Precipitation 0.00 in 0.11 in 1.95 in (1957)
Month to date precipitation 0.20 0.67  
Year to date precipitation 34.15 37.37  
Snow  
Snow 0.00 in 0.00 in 0.00 in (2002)
Month to date snowfall 0.0 0.0  
Since 1 July snowfall 0.0 0.0  
Snow Depth 0.00 in    
Sea Level Pressure  
Sea Level Pressure 29.93 in    
Wind  
Wind Speed 10 mph (WSW)    
Max Wind Speed 21 mph    
Max Gust Speed 28 mph    
Visibility 10 miles    
Events      
T = Trace of Precipitation, MM = Missing Value Source: NWS Daily Summary

Daily Weather History Graph

Daily Weather History Graph

Search for Another Location

Airport or City:

Trip Planner

Search our weather history database for the weather conditions in past years. The results will help you decide how hot, cold, wet, or windy it might be!

Date:

Astronomy

Oct. 06, 2012 Rise Set
Actual Time 7:04 AM EDT 6:40 PM EDT
Civil Twilight 6:38 AM EDT 7:06 PM EDT
Nautical Twilight 6:08 AM EDT 7:36 PM EDT
Astronomical Twilight 5:38 AM EDT 8:06 PM EDT
Moon 11:00 PM EDT (10/6) 12:50 PM EDT (10/6)
Length of Visible Light 12h 27m
Length of Day
11h 35m
Waning Gibbous, 65% of the Moon is Illuminated
Oct 6
Waning Gibbous
Oct 8
Last Quarter
Oct 15
New
Oct 21
First Quarter
Oct 29
Full

Hourly Weather History & Observations

Time (EDT) Temp. Heat Index Dew Point Humidity Pressure Visibility Wind Dir Wind Speed Gust Speed Precip Events Conditions
12:51 AM 63.0 °F - 59.0 °F 87% 30.00 in 10.0 mi SSW 4.6 mph - N/A   Clear
1:51 AM 62.1 °F - 59.0 °F 90% 29.99 in 10.0 mi SSW 5.8 mph - N/A   Clear
2:51 AM 62.1 °F - 59.0 °F 90% 29.98 in 10.0 mi South 4.6 mph - N/A   Clear
3:51 AM 62.1 °F - 59.0 °F 90% 29.96 in 10.0 mi SSW 3.5 mph - N/A   Clear
4:51 AM 62.1 °F - 59.0 °F 90% 29.95 in 10.0 mi South 5.8 mph - N/A   Clear
5:51 AM 63.0 °F - 61.0 °F 93% 29.95 in 8.0 mi SSW 6.9 mph - N/A   Clear
6:51 AM 63.0 °F - 61.0 °F 93% 29.95 in 8.0 mi SW 9.2 mph - N/A   Clear
7:51 AM 64.0 °F - 61.0 °F 90% 29.96 in 7.0 mi SSW 6.9 mph - N/A   Clear
8:51 AM 68.0 °F - 62.1 °F 81% 29.96 in 10.0 mi SW 10.4 mph - N/A   Clear
9:51 AM 73.0 °F - 59.0 °F 61% 29.95 in 10.0 mi SW 12.7 mph - N/A   Partly Cloudy
10:51 AM 77.0 °F - 59.0 °F 54% 29.93 in 10.0 mi SW 13.8 mph 18.4 mph N/A   Clear
11:51 AM 80.1 °F 80.7 °F 59.0 °F 48% 29.91 in 10.0 mi SW 13.8 mph - N/A   Clear
12:51 PM 82.0 °F 82.1 °F 59.0 °F 45% 29.88 in 10.0 mi WSW 11.5 mph 20.7 mph N/A   Clear
1:51 PM 84.0 °F 84.0 °F 60.1 °F 44% 29.85 in 10.0 mi SSW 16.1 mph - N/A   Clear
2:51 PM 82.9 °F 82.8 °F 59.0 °F 44% 29.85 in 10.0 mi West 11.5 mph 20.7 mph N/A   Partly Cloudy
3:51 PM 82.9 °F 82.6 °F 57.9 °F 42% 29.85 in 10.0 mi West 10.4 mph - N/A   Clear
4:51 PM 82.0 °F 82.1 °F 59.0 °F 45% 29.85 in 10.0 mi West 8.1 mph - N/A   Clear
5:51 PM 80.1 °F 80.9 °F 60.1 °F 50% 29.87 in 10.0 mi West 4.6 mph - N/A   Mostly Cloudy
6:51 PM 78.1 °F - 60.1 °F 54% 29.88 in 10.0 mi WNW 3.5 mph - N/A   Overcast
7:51 PM 77.0 °F - 61.0 °F 58% 29.91 in 10.0 mi Calm Calm - N/A   Mostly Cloudy
8:51 PM 71.1 °F - 59.0 °F 66% 29.95 in 10.0 mi North 16.1 mph 23.0 mph N/A   Overcast
9:51 PM 70.0 °F - 57.9 °F 65% 29.97 in 10.0 mi NNE 12.7 mph 23.0 mph N/A   Mostly Cloudy
10:51 PM 69.1 °F - 54.0 °F 58% 29.99 in 10.0 mi North 18.4 mph 23.0 mph N/A   Scattered Clouds
11:51 PM 66.9 °F - 52.0 °F 59% 29.99 in 10.0 mi North 18.4 mph 24.2 mph N/A   Scattered Clouds